Date,TemperatureHighF,TemperatureAvgF,TemperatureLowF,DewpointHighF,DewpointAvgF,DewpointLowF,HumidityHigh,HumidityAvg,HumidityLow,PressureMaxIn,PressureMinIn,WindSpeedMaxMPH,WindSpeedAvgMPH,GustSpeedMaxMPH,PrecipitationSumIn
2013-1-1,50,47,43,49,43,34,97,87,63,30.19,30.03,1,0,2,0.24
2013-1-2,50,45,42,49,39,37,97,80,71,30.28,30.02,4,0,6,0.14
2013-1-3,47,41,31,38,35,28,89,80,61,30.35,30.23,3,0,4,0.00
2013-1-4,51,38,26,32,24,17,91,61,26,30.41,30.28,4,0,6,0.00
2013-1-5,50,37,27,33,25,20,82,62,32,30.49,30.35,2,0,4,0.00
2013-1-6,50,43,35,39,36,31,88,76,60,30.35,30.15,2,0,4,0.01
2013-1-7,48,34,29,36,29,26,93,85,53,30.50,30.27,4,0,6,0.00
2013-1-10,64,53,43,47,41,32,90,66,48,30.61,30.43,1,0,2,0.15
2013-1-11,51,49,46,49,48,43,96,94,91,30.42,30.23,0,0,2,0.05
2013-1-12,70,58,50,61,55,49,97,91,73,30.26,30.17,0,0,2,0.00
2013-1-13,75,63,51,61,56,50,96,81,56,30.23,30.13,2,0,3,0.00
2013-1-14,71,63,51,61,58,47,90,82,70,30.24,30.15,1,0,2,0.00
2013-1-15,48,47,47,45,45,44,95,91,87,30.31,30.14,1,0,2,0.01
2013-1-16,50,48,45,49,47,43,96,95,94,30.14,30.06,3,0,4,0.13
2013-1-17,51,51,50,50,49,49,96,95,95,30.07,30.05,1,0,2,0.07
2013-1-24,41,34,28,24,11,-3,72,42,19,30.56,30.04,2,1,4,0.00
2013-1-25,28,26,23,22,9,-4,79,52,25,30.58,30.21,0,0,1,0.02
2013-1-26,42,32,27,32,26,22,89,80,63,30.46,30.17,0,0,2,0.04
2013-1-27,41,33,26,27,25,21,90,73,54,30.65,30.50,1,0,2,0.05
2013-1-28,52,44,34,44,36,26,84,74,62,30.54,30.33,2,0,4,0.07
2013-1-29,73,57,44,56,50,42,91,77,55,30.29,30.11,2,0,3,0.00
2013-1-30,71,69,62,63,61,59,91,74,67,30.07,29.44,8,3,21,0.25
2013-1-31,64,56,52,60,52,46,90,85,79,29.58,29.52,5,2,11,0.08
2013-2-8,58,48,40,45,39,27,94,72,52,30.15,29.90,4,1,9,0.43
2013-2-9,54,40,29,29,22,12,87,54,19,30.44,30.13,4,0,8,0.00
2013-2-10,54,41,26,42,24,15,91,56,21,30.57,30.28,4,0,6,0.04
2013-2-11,64,57,44,60,54,42,99,90,81,30.29,29.99,4,0,9,0.06
2013-2-12,64,53,46,54,37,21,97,59,21,30.17,29.97,4,0,7,0.00
2013-2-13,49,47,42,47,44,38,97,91,66,30.04,29.70,3,0,7,0.06
2013-2-14,42,40,37,38,36,32,89,86,83,29.98,29.92,1,0,2,0.00
2013-2-16,35,34,32,32,31,25,94,91,77,30.00,29.91,4,0,7,0.25
2013-2-17,40,31,24,25,12,-1,76,49,20,30.36,30.00,6,1,12,0.00
2013-2-18,53,36,19,27,17,10,80,51,20,30.49,30.33,4,0,7,0.02
2013-2-19,52,44,34,50,38,24,95,82,60,30.34,29.95,4,0,8,0.14
2013-2-20,55,41,29,34,22,9,93,55,18,30.21,30.05,4,0,8,0.01
2013-2-21,58,42,26,26,18,10,75,42,18,30.33,30.18,4,0,6,0.00
2013-2-22,44,37,34,35,32,22,92,82,41,30.43,30.20,2,0,3,0.43
2013-2-23,44,40,37,43,40,35,99,97,92,30.20,29.91,3,0,4,0.60
2013-2-24,66,49,38,45,39,22,99,74,23,30.11,29.87,4,0,6,0.06
2013-2-25,44,39,35,34,25,19,85,58,41,30.31,30.11,4,0,8,0.00
2013-2-26,58,46,36,58,42,25,99,88,59,30.22,29.63,5,0,8,0.70
2013-2-27,64,50,40,45,40,34,98,74,38,29.88,29.70,4,0,9,0.01
2013-2-28,51,41,33,40,32,22,96,71,32,29.94,29.77,4,0,10,0.00
2013-3-1,54,40,28,32,27,23,87,63,32,30.01,29.91,4,0,6,0.00
2013-3-2,52,39,29,32,24,16,84,57,32,30.01,29.89,6,0,9,0.00
2013-3-3,51,36,26,21,17,13,73,47,25,30.06,29.92,4,0,7,0.00
2013-3-4,56,36,24,22,15,5,70,45,18,30.20,30.06,5,0,8,0.00
2013-3-5,51,43,33,45,34,22,97,74,41,30.17,29.64,3,0,4,0.27
2013-3-6,50,44,38,48,32,24,97,66,42,30.11,29.59,8,1,17,0.01
2013-3-7,56,43,31,30,26,23,82,54,32,30.32,30.11,5,1,8,0.00
2013-3-8,60,45,29,28,22,15,82,46,20,30.37,30.22,7,1,11,0.00
2013-3-9,68,45,30,35,27,19,79,54,17,30.42,30.29,4,0,6,0.00
2013-3-10,74,50,32,38,27,15,93,51,11,30.41,30.25,3,0,6,0.00
2013-3-11,71,56,39,54,45,31,85,67,46,30.31,29.99,5,0,9,0.00
2013-3-12,76,63,52,62,54,31,99,76,43,30.00,29.81,5,1,11,0.32
2013-3-13,62,48,35,37,26,16,89,47,19,30.22,29.99,6,1,8,0.00
2013-3-14,40,37,35,20,16,14,44,42,39,30.25,30.21,4,1,8,0.00
2013-3-18,60,51,42,54,44,39,95,79,60,30.23,29.96,3,1,4,0.00
2013-3-19,45,42,39,43,41,39,99,96,91,30.27,29.95,1,0,2,0.26
2013-3-20,69,54,42,49,31,9,99,53,14,30.09,29.91,2,1,5,0.27
2013-3-21,61,45,38,32,21,8,81,43,17,30.19,29.82,2,1,5,0.00
2013-3-22,57,40,26,17,11,6,65,33,19,30.17,29.86,2,1,4,0.00
2013-3-23,58,45,37,33,26,19,74,51,25,30.14,30.00,0,0,2,0.00
2013-3-24,41,39,37,40,39,33,99,98,82,30.00,29.66,4,1,8,0.52
2013-3-25,51,42,37,40,32,22,99,71,35,29.90,29.64,6,1,10,0.00
2013-3-26,55,43,32,31,27,24,80,55,32,30.19,29.89,4,0,8,0.00
2013-3-27,57,43,31,29,23,15,84,49,21,30.31,30.18,6,1,11,0.00
2013-3-28,63,44,28,31,23,17,88,50,19,30.38,30.22,5,1,9,0.00
2013-3-29,64,46,29,36,25,18,86,51,18,30.42,30.25,4,0,7,0.00
2013-3-30,70,54,40,45,37,22,82,57,21,30.34,30.14,4,0,6,0.00
2013-3-31,71,56,48,61,51,43,99,85,59,30.17,29.87,4,0,8,0.35
2013-4-1,78,63,54,60,47,35,99,65,21,29.96,29.85,4,0,8,0.02
2013-4-2,68,50,38,37,29,18,81,48,16,30.23,30.02,5,0,10,0.00
2013-4-3,67,52,44,35,22,11,69,34,14,30.37,30.19,4,0,8,0.00
2013-4-4,50,44,40,42,35,23,99,73,41,30.43,30.01,4,0,6,0.69
2013-4-5,67,50,40,49,44,40,99,82,48,30.09,29.96,4,0,7,0.01
2013-4-6,70,53,39,44,34,18,99,57,18,30.35,30.09,4,0,6,0.00
2013-4-7,77,57,37,49,40,34,93,57,26,30.37,30.15,4,0,8,0.00
2013-4-8,85,67,51,58,52,48,95,63,34,30.24,30.09,4,0,8,0.00
2013-4-9,88,72,56,61,57,54,96,63,32,30.24,30.10,4,0,10,0.00
2013-4-10,94,75,61,63,59,55,90,61,32,30.19,29.99,4,1,9,0.00
2013-4-11,71,68,66,60,59,58,78,72,70,30.04,30.02,3,0,8,0.00
2013-4-29,77,73,70,67,64,62,84,75,68,30.08,30.03,2,0,4,0.63
2013-6-4,88,76,68,66,64,62,88,68,44,30.13,30.05,2,0,3,0.15
2013-6-5,69,68,68,65,64,64,87,86,85,30.13,30.11,0,0,0,0.00
2013-6-26,71,70,70,69,68,67,97,95,90,30.02,29.97,2,0,3,0.33
2013-6-27,93,78,68,76,72,67,99,84,53,29.98,29.75,4,0,8,0.01
2013-6-28,95,79,71,75,72,68,98,82,47,29.79,29.59,4,0,10,0.59
2013-6-29,87,76,69,76,72,69,99,89,64,29.77,29.65,3,0,5,0.33
2013-6-30,90,77,71,76,72,69,98,88,60,29.92,29.75,3,0,5,0.33
2013-7-1,82,75,70,77,72,70,98,92,77,30.03,29.89,2,0,8,0.30
2013-7-2,75,74,72,74,72,71,98,96,93,30.24,30.02,3,0,6,0.35
2013-7-3,88,77,73,78,74,24,98,91,64,30.29,30.20,2,0,5,2.21
2013-7-4,92,80,73,75,73,68,97,81,48,30.33,30.20,3,0,6,0.01
2013-7-5,93,81,73,74,73,70,95,78,48,30.34,30.18,4,0,6,0.00
2013-7-6,91,79,74,78,73,72,95,82,59,30.32,30.17,3,0,5,0.02
2013-7-7,92,80,72,76,72,69,94,78,54,30.25,30.09,3,0,6,0.01
2013-7-8,92,80,73,76,73,70,92,80,51,30.22,30.12,4,0,8,0.00
2013-7-9,91,77,73,78,73,70,96,87,60,30.21,30.09,4,0,7,0.02
2013-7-10,92,79,73,76,74,71,95,84,55,30.16,29.98,4,0,8,0.00
2013-7-11,76,76,75,73,72,72,92,90,88,30.03,29.98,2,0,3,0.00
2013-8-7,87,78,71,71,70,66,91,77,50,30.09,30.00,0,0,1,0.00
2013-8-8,93,81,72,74,72,70,93,75,47,30.04,29.96,1,0,2,0.00
2013-8-9,93,82,75,76,74,73,93,78,54,30.04,29.95,2,0,5,0.00
2013-8-10,97,81,74,77,75,73,97,82,54,30.07,29.98,1,0,3,0.12
2013-8-11,94,82,73,76,74,72,97,79,54,30.11,29.99,0,0,1,0.01
2013-8-12,96,82,75,76,74,72,95,77,46,30.04,29.93,0,0,1,0.00
2013-8-13,88,76,72,76,74,71,97,92,66,29.93,29.77,1,0,2,0.19
2013-8-14,75,75,74,74,74,73,96,96,96,29.84,29.83,1,0,2,0.00
2013-9-1,73,72,71,72,71,70,98,97,97,29.93,29.91,0,0,0,0.00
2013-9-2,90,79,71,76,74,70,98,86,62,29.97,29.88,0,0,1,1.32
2013-9-3,89,80,73,76,74,71,96,83,61,30.02,29.88,0,0,1,1.32
2013-9-4,87,75,68,72,71,66,95,88,57,30.17,30.04,1,0,2,0.00
2013-9-5,95,76,68,73,66,58,97,74,34,30.19,30.11,3,0,6,0.00
2013-9-6,87,72,65,66,62,60,94,73,44,30.27,30.16,0,0,0,0.00
2013-9-7,90,72,60,66,63,13,96,75,10,30.23,30.06,0,0,0,0.00
2013-9-8,94,75,64,70,64,60,96,72,37,30.09,29.99,0,0,2,0.00
2013-9-9,92,76,66,72,67,64,96,78,44,30.24,30.08,3,0,4,0.00
2013-9-10,96,78,69,73,69,64,95,76,41,30.34,30.21,3,0,4,0.00
2013-9-11,93,78,68,72,69,65,95,75,44,30.31,30.16,2,0,4,0.00
2013-9-12,74,73,72,69,68,68,88,86,84,30.17,30.14,0,0,1,0.00
2013-9-13,85,75,70,70,66,58,98,75,48,29.95,29.84,0,0,0,0.15
2013-9-14,77,69,62,56,53,51,82,59,43,30.21,29.99,0,0,2,0.00
2013-9-15,85,75,58,64,61,55,94,63,42,30.33,30.19,2,0,3,0.00
2013-9-16,90,75,68,75,66,60,98,77,40,30.27,30.10,2,0,4,0.26
2013-9-17,83,69,61,61,56,52,86,64,37,30.40,30.27,3,0,5,0.00
2013-9-18,78,63,52,56,52,48,96,71,36,30.40,30.25,2,0,3,0.00
2013-9-19,80,66,55,64,59,54,96,79,51,30.29,30.17,2,0,4,0.00
2013-9-20,70,67,64,68,65,61,98,92,81,30.18,30.05,3,0,4,0.22
2013-9-21,79,71,66,72,69,66,99,93,75,30.05,29.82,3,0,5,0.38
2013-9-22,80,68,61,68,63,59,99,86,55,29.95,29.79,4,0,6,0.46
2013-9-23,76,63,55,58,56,52,98,79,47,30.14,29.97,2,0,3,0.00
2013-9-24,79,64,55,62,57,54,99,81,50,30.19,30.00,2,0,4,0.00
2013-9-25,76,64,54,63,59,54,99,87,60,30.03,29.93,2,0,4,0.00
2013-9-26,84,67,59,65,59,54,98,79,40,30.09,29.93,2,0,4,0.00
2013-9-27,78,64,55,63,57,54,99,80,53,30.25,30.09,2,0,4,0.00
2013-9-28,75,62,52,59,55,51,99,80,51,30.35,30.22,3,0,4,0.00
2013-9-29,78,62,52,60,55,52,99,79,45,30.25,30.09,3,0,4,0.00
2013-9-30,78,62,52,63,56,51,99,83,47,30.20,30.06,0,0,0,0.00
2013-10-1,86,66,52,65,58,52,99,79,44,30.22,30.06,2,0,4,0.00
2013-10-2,89,70,58,67,61,57,98,78,40,30.21,30.07,3,0,4,0.00
2013-10-3,90,70,60,70,64,59,98,81,43,30.21,30.08,3,0,5,0.00
2013-10-4,89,72,62,70,65,61,96,79,45,30.21,30.07,3,0,4,0.00
2013-10-5,92,74,62,73,66,62,98,78,43,30.19,30.04,3,0,4,0.00
2013-10-6,86,74,66,72,69,64,98,83,56,30.13,29.96,4,0,8,0.00
2013-10-7,74,72,65,73,70,64,99,95,90,30.08,29.91,3,0,5,0.35
2013-10-8,65,61,60,64,52,48,97,73,64,30.30,30.07,3,0,5,0.00
2013-10-9,60,60,60,53,52,51,78,76,73,30.28,30.23,2,0,4,0.00
2013-10-10,61,61,55,61,60,54,99,98,96,30.12,30.03,2,0,3,0.05
2013-10-11,69,63,60,64,62,59,99,94,79,30.07,30.00,2,0,2,0.01
2013-10-12,68,65,61,66,63,60,98,94,85,30.17,30.04,0,0,1,0.00
2013-10-13,68,65,63,65,64,62,97,94,88,30.28,30.16,2,0,3,0.02
2013-10-14,66,63,58,64,62,57,98,94,87,30.33,30.26,2,0,3,0.05
2013-10-15,74,64,56,63,59,56,99,86,60,30.29,30.13,2,0,4,0.01
2013-10-16,69,66,62,64,63,61,97,90,81,30.15,30.04,0,0,0,0.00
2013-10-17,62,61,61,61,61,60,98,98,97,30.06,30.02,0,0,0,0.00